Showing default

KUIPER-00080, 64827

Orbit data source: Space-Track

KUIPER-00080, 64827 is a payload satellite owned by Kuiper Systems (US) in LEO that was launched on Wed, 16 Jul 2025 UTC via an FALCON 9 launch vehicle from the Air Force Eastern Test Range (AFETR). Payload-class satellites include a variety of spacecraft equipped with specific instruments for various scientific and technological missions. These include communications satellites like Starlink; space stations such as the ISS; scientific satellites like the Hubble; Earth observation satellites from companies like Planet Labs, Umbra, and HawkEye 360; GPS; miniature CubeSats for education and research; and military/defense satellites.

Loading next visibility...
Identifier
64827, 2025-151M
Orbit
LEO
Country
Flag of USUS
Related business
Manufacturer
Kuiper Systems
Mission
Operational Commercial Communications
Bus & Motor
KUIPER, Unknown motor
Mass
~490 kg wet, ~490 kg dry
Launch date (UTC)
2025-07-16 (11 months ago)
Launch vehicle
FALCON 9
Launch site
Air Force Eastern Test Range (AFETR)
Object type
Payload
Rocket body
Debris
Shape & HBR
Box + 2 Pan, 3.4 m
Radar Cross Section
2.326 m², Large (>1 m²)

Expand to show TLE details & history
Last TLE update: 19 hours ago

TLE from 19 hours ago
0 KUIPER-00080
1 64827U 25151M   26166.37443889 -.00001004  00000-0 -10268-3 0  9995
2 64827  51.8998 228.6053 0000453  86.3101 273.7913 14.79924917 49778
Epoch: 2026-06-15T08:59Z
TLE epoch observation values (Epoch: 2026-06-15T08:59:11.520Z)
Latitude
-0.00001°
Longitude
-169.85445°
Altitude
630.287 km
Speed
7.545 km/s
True Right ascension
15h 14m 25s
True Declination
0° 00' 00"
Sunlit
Object was in full shadow at epoch
Visualization orbit readout
Latitude
Unknown
Longitude
Unknown
Altitude
Unknown
Speed
Unknown
Apparent Right ascension
Unknown
Apparent Declination
Unknown
Sunlit
N/A
Visualization observer readout
Local Sidereal Time
14:43:30
Azimuth
Unknown
Elevation
Unknown
Doppler factor
Unknown
Orbital elements
Apogee altitude
630.33 km
Perigee altitude
629.695 km
Semi-major axis
7,008.149 km
Eccentricity
0.00005
Inclination
51.8998°
RAAN
228.6053°
Arg. of periapsis
86.3101°
True anomaly
273.78612°
Mean anomaly
273.7913°
Eccentric anomaly
273.78871°
Mean motion
3.69946 °/min
Orbital period
97.31 mins
BSTAR
-0.00010268
Loading maneuver chart data...
Computing Atmospheric mass density...
Loading historical data...
Loading historical data...
Loading historical data...
Loading historical data...
Loading historical data...
Loading historical data...
Loading historical data...

Documentation

Showing up to 5 results
|